Regional Weather Roundup
Issued by NWS

Home | Current Version | Previous Version | Graphics & Text | Print | Product List | Glossary On
Versions: 1 2 3 4 5 6 7 8 9 10 11 12 13 14 15 16 17 18 19 20 21 22 23 24 25 26 27 28 29 30 31 32 33 34 35 36 37 38 39 40 41 42 43 44 45 46 47 48 49 50
295
ASUS43 KLSX 252210
RWRMO

WEATHER SUMMARY FOR MISSOURI
NATIONAL WEATHER SERVICE SPRINGFIELD MO
500 PM CDT WED MAY 25 2016

NOTE: "FAIR" INDICATES FEW OR NO CLOUDS BELOW 12,000 FEET WITH NO
       SIGNIFICANT WEATHER AND/OR OBSTRUCTIONS TO VISIBILITY.
       CURRENT SKY AND/OR WEATHER CONDITIONS ARE NOT AVAILABLE FOR
       CHILLICOTHE AND FARMINGTON.

MOZ001>031-035>038-043-044-053-054-252300-
...NORTHERN AND WESTERN MISSOURI...

CITY           SKY/WX    TMP DP  RH WIND       PRES   REMARKS
KANSAS CTY INT PTSUNNY   81  66  60 S13       29.86F
KANSAS C DTWN  SUNNY     84  65  52 S16G22    29.85F
LEE`S SUMMIT   SUNNY     83  64  52 S16G23    29.87F
ST JOSEPH      CLOUDY    80  65  59 S10       29.85F
CHILLICOTHE      N/A     85  62  46 VRB5      29.87S
KIRKSVILLE     SUNNY     82  65  56 S9        29.89F

$$
MOZ066>068-077>081-088>096-101>105-252300-
...SOUTHWEST MISSOURI...

CITY           SKY/WX    TMP DP  RH WIND       PRES   REMARKS
SPRINGFIELD    MOSUNNY   80  63  55 S9        29.95S
JOPLIN         PTSUNNY   82  70  66 S14       29.91F
BRANSON        PTSUNNY   81  68  65 SE7       29.99S

$$
MOZ032>034-039>042-045>050-055>058-069>072-252300-
...CENTRAL MISSOURI...

CITY           SKY/WX    TMP DP  RH WIND       PRES   REMARKS
COLUMBIA       CLOUDY    83  63  50 S12       29.91F
JEFFERSON CITY CLOUDY    82  64  54 S8        29.90F
ROLLA          MOSUNNY   79  63  57 S7        29.94F
SEDALIA        SUNNY     83  62  49 S14       29.90F
WHITEMAN AFB   MOSUNNY   83  66  56 SW16      29.87F
WARRENSBURG    SUNNY     82  63  51 S10       29.87F

$$
MOZ051-052-059>065-252300-
...EAST CENTRAL MISSOURI...

CITY           SKY/WX    TMP DP  RH WIND       PRES   REMARKS
ST LOUIS INTL  PTSUNNY   84  62  47 SW9       29.92F
SPIRIT OF STL  CLOUDY    82  64  54 S7        29.91F
ST CHARLES     MOSUNNY   83  64  52 S12       29.90F

$$
MOZ072>076-082>087-097>100-106>115-252300-
...SOUTH CENTRAL AND SOUTHEAST MISSOURI...

CITY           SKY/WX    TMP DP  RH WIND       PRES   REMARKS
CAPE GIRARDEAU CLOUDY    79  68  69 S9        29.98R
FARMINGTON     CLOUDY    77  68  73 S13       30.00R
POPLAR BLUFF   CLOUDY    76  68  76 S8        29.99R
WEST PLAINS    SUNNY     76  64  66 S7        30.02R

$$




USA.gov is the U.S. government's official web portal to all federal, state and local government web resources and services.